| time (UTC) | temp F | wind direction | speed MPH | gust MPH | rain 1hr in | rain 24hr in | rain mn in | humidity % | barometer mb |
| 20260507142404 | 86 | 56 | 8.0 | 17.0 | 0.00 | 0.00 | 0.00 | 70 | 1022.1 |
| 20260507141901 | 87 | 120 | 9.0 | 15.0 | 0.00 | 0.00 | 0.00 | 70 | 1022.0 |
| 20260507141357 | 87 | 71 | 9.0 | 21.0 | 0.00 | 0.00 | 0.00 | 68 | 1021.9 |
| 20260507140854 | 86 | 91 | 11.0 | 16.0 | 0.00 | 0.00 | 0.00 | 68 | 1022.1 |
| 20260507140351 | 86 | 99 | 12.0 | 19.0 | 0.00 | 0.00 | 0.00 | 68 | 1021.8 |
| 20260507135849 | 86 | 96 | 11.0 | 19.0 | 0.00 | 0.00 | 0.00 | 67 | 1022.1 |
| 20260507135345 | 87 | 96 | 12.0 | 16.0 | 0.00 | 0.00 | 0.00 | 66 | 1022.0 |
| 20260507134843 | 86 | 92 | 10.0 | 18.0 | 0.00 | 0.00 | 0.00 | 68 | 1021.9 |
| 20260507134339 | 85 | 46 | 9.0 | 15.0 | 0.00 | 0.00 | 0.00 | 70 | 1022.1 |
| 20260507133835 | 86 | 226 | 10.0 | 16.0 | 0.00 | 0.00 | 0.00 | 70 | 1022.0 |
| 20260507133330 | 86 | 139 | 9.0 | 16.0 | 0.00 | 0.00 | 0.00 | 70 | 1021.8 |
| 20260507132829 | 86 | 160 | 7.0 | 15.0 | 0.00 | 0.00 | 0.00 | 70 | 1022.0 |
| 20260507132325 | 86 | 104 | 10.0 | 14.0 | 0.00 | 0.00 | 0.00 | 69 | 1021.8 |
| 20260507131823 | 86 | 97 | 10.0 | 16.0 | 0.00 | 0.00 | 0.00 | 69 | 1021.8 |
| 20260507131319 | 86 | 91 | 11.0 | 18.0 | 0.00 | 0.00 | 0.00 | 68 | 1021.8 |
| 20260507130816 | 86 | 73 | 9.0 | 15.0 | 0.00 | 0.00 | 0.00 | 70 | 1021.6 |
| 20260507130313 | 85 | 77 | 9.0 | 13.0 | 0.00 | 0.00 | 0.00 | 70 | 1021.7 |
| 20260507125812 | 86 | 137 | 11.0 | 14.0 | 0.00 | 0.00 | 0.00 | 70 | 1021.6 |
| 20260507125309 | 85 | 114 | 9.0 | 17.0 | 0.00 | 0.00 | 0.00 | 70 | 1021.6 |
| 20260507124806 | 84 | 96 | 9.0 | 16.0 | 0.00 | 0.00 | 0.00 | 70 | 1021.6 |
| 20260507124302 | 84 | 173 | 10.0 | 13.0 | 0.00 | 0.00 | 0.00 | 71 | 1021.6 |
| 20260507123801 | 84 | 88 | 12.0 | 14.0 | 0.00 | 0.00 | 0.00 | 71 | 1021.6 |
| 20260507123258 | 84 | 71 | 11.0 | 14.0 | 0.00 | 0.00 | 0.00 | 73 | 1021.4 |
| 20260507122754 | 83 | 116 | 11.0 | 15.0 | 0.00 | 0.00 | 0.00 | 74 | 1021.3 |
| 20260507122249 | 83 | 114 | 6.0 | 11.0 | 0.00 | 0.00 | 0.00 | 74 | 1021.4 |
| 20260507121746 | 83 | 220 | 4.0 | 13.0 | 0.00 | 0.00 | 0.00 | 73 | 1021.3 |
| 20260507121241 | 83 | 117 | 9.0 | 13.0 | 0.00 | 0.00 | 0.00 | 73 | 1021.1 |
| 20260507120738 | 83 | 87 | 6.0 | 13.0 | 0.00 | 0.00 | 0.00 | 73 | 1021.0 |
| 20260507120235 | 83 | 92 | 10.0 | 14.0 | 0.00 | 0.00 | 0.00 | 74 | 1020.9 |
| 20260507115731 | 82 | 70 | 11.0 | 14.0 | 0.00 | 0.00 | 0.00 | 75 | 1020.9 |
| 20260507115227 | 82 | 88 | 9.0 | 15.0 | 0.00 | 0.00 | 0.00 | 75 | 1021.1 |
| 20260507114722 | 81 | 126 | 9.0 | 13.0 | 0.00 | 0.00 | 0.00 | 76 | 1020.8 |
| 20260507114220 | 81 | 121 | 7.0 | 14.0 | 0.00 | 0.00 | 0.00 | 77 | 1020.7 |
| 20260507113718 | 81 | 93 | 8.0 | 13.0 | 0.00 | 0.00 | 0.00 | 77 | 1020.9 |
| 20260507113214 | 80 | 69 | 9.0 | 15.0 | 0.00 | 0.00 | 0.00 | 78 | 1020.8 |
| 20260507112712 | 80 | 121 | 7.0 | 10.0 | 0.00 | 0.00 | 0.00 | 78 | 1020.9 |
| 20260507112209 | 80 | 87 | 8.0 | 9.0 | 0.00 | 0.00 | 0.00 | 79 | 1020.7 |
| 20260507111706 | 80 | 102 | 6.0 | 9.0 | 0.00 | 0.00 | 0.00 | 79 | 1020.8 |
| 20260507111203 | 79 | 112 | 6.0 | 8.0 | 0.00 | 0.00 | 0.00 | 80 | 1021.0 |
| 20260507110658 | 79 | 39 | 5.0 | 8.0 | 0.00 | 0.00 | 0.00 | 81 | 1021.0 |
| 20260507110156 | 78 | 72 | 8.0 | 10.0 | 0.00 | 0.00 | 0.00 | 82 | 1020.9 |
| 20260507105653 | 78 | 87 | 7.0 | 8.0 | 0.00 | 0.00 | 0.00 | 82 | 1020.9 |
| 20260507105148 | 78 | 93 | 7.0 | 11.0 | 0.00 | 0.00 | 0.00 | 83 | 1020.8 |
| 20260507104646 | 77 | 129 | 11.0 | 13.0 | 0.00 | 0.00 | 0.00 | 84 | 1020.7 |
| 20260507104142 | 77 | 82 | 8.0 | 11.0 | 0.00 | 0.00 | 0.00 | 85 | 1020.6 |
| 20260507103638 | 76 | 82 | 6.0 | 9.0 | 0.00 | 0.00 | 0.00 | 85 | 1020.7 |
| 20260507103135 | 77 | 61 | 5.0 | 10.0 | 0.00 | 0.00 | 0.00 | 85 | 1020.4 |
| 20260507102632 | 77 | 87 | 11.0 | 14.0 | 0.00 | 0.00 | 0.00 | 85 | 1020.7 |
| 20260507102128 | 76 | 112 | 4.0 | 16.0 | 0.00 | 0.00 | 0.00 | 85 | 1020.6 |
| 20260507101624 | 76 | 96 | 13.0 | 16.0 | 0.00 | 0.00 | 0.00 | 85 | 1020.4 |
| 20260507101120 | 76 | 136 | 5.0 | 11.0 | 0.00 | 0.00 | 0.00 | 85 | 1020.4 |
| 20260507100618 | 76 | 107 | 13.0 | 16.0 | 0.00 | 0.00 | 0.00 | 86 | 1020.0 |
| 20260507100115 | 76 | 63 | 6.0 | 11.0 | 0.00 | 0.00 | 0.00 | 85 | 1020.0 |
| 20260507095613 | 76 | 79 | 8.0 | 15.0 | 0.00 | 0.00 | 0.00 | 85 | 1020.1 |
| 20260507095109 | 76 | 64 | 7.0 | 13.0 | 0.00 | 0.00 | 0.00 | 85 | 1020.1 |
| 20260507094606 | 76 | 88 | 13.0 | 17.0 | 0.00 | 0.00 | 0.00 | 85 | 1020.0 |
| 20260507094103 | 76 | 168 | 5.0 | 11.0 | 0.00 | 0.00 | 0.00 | 84 | 1020.0 |
| 20260507093600 | 76 | 68 | 11.0 | 14.0 | 0.00 | 0.00 | 0.00 | 84 | 1020.0 |
| 20260507093059 | 76 | 124 | 4.0 | 10.0 | 0.00 | 0.00 | 0.00 | 84 | 1020.1 |
| 20260507092555 | 76 | 99 | 9.0 | 16.0 | 0.00 | 0.00 | 0.00 | 84 | 1020.0 |
| 20260507092051 | 76 | 93 | 7.0 | 15.0 | 0.00 | 0.00 | 0.00 | 84 | 1020.0 |
| 20260507091548 | 76 | 107 | 9.0 | 14.0 | 0.00 | 0.00 | 0.00 | 83 | 1020.2 |
| 20260507091044 | 76 | 78 | 11.0 | 15.0 | 0.00 | 0.00 | 0.00 | 83 | 1020.3 |
| 20260507090540 | 76 | 81 | 13.0 | 16.0 | 0.00 | 0.00 | 0.00 | 83 | 1020.2 |
| 20260507090037 | 76 | 76 | 15.0 | 22.0 | 0.00 | 0.00 | 0.00 | 83 | 1020.3 |
| 20260507085535 | 76 | 69 | 6.0 | 16.0 | 0.00 | 0.00 | 0.00 | 82 | 1020.0 |
| 20260507085031 | 77 | 59 | 10.0 | 15.0 | 0.00 | 0.00 | 0.00 | 82 | 1020.1 |
| 20260507084528 | 77 | 100 | 14.0 | 17.0 | 0.00 | 0.00 | 0.00 | 81 | 1020.1 |
| 20260507084025 | 77 | 59 | 12.0 | 16.0 | 0.00 | 0.00 | 0.00 | 82 | 1020.1 |
| 20260507083521 | 76 | 82 | 12.0 | 15.0 | 0.00 | 0.00 | 0.00 | 82 | 1020.0 |
| 20260507083018 | 76 | 110 | 6.0 | 15.0 | 0.00 | 0.00 | 0.00 | 82 | 1020.2 |
| 20260507082514 | 76 | 93 | 13.0 | 15.0 | 0.00 | 0.00 | 0.00 | 82 | 1020.3 |
| 20260507082010 | 76 | 71 | 10.0 | 14.0 | 0.00 | 0.00 | 0.00 | 83 | 1020.4 |
| 20260507081507 | 77 | 79 | 8.0 | 16.0 | 0.00 | 0.00 | 0.00 | 83 | 1020.1 |
| 20260507081004 | 77 | 71 | 9.0 | 14.0 | 0.00 | 0.00 | 0.00 | 84 | 1020.0 |
| 20260507080459 | 76 | 88 | 9.0 | 17.0 | 0.00 | 0.00 | 0.00 | 84 | 1020.0 |
| 20260507075955 | 76 | 77 | 10.0 | 16.0 | 0.00 | 0.00 | 0.00 | 84 | 1020.1 |
| 20260507075452 | 76 | 67 | 7.0 | 15.0 | 0.00 | 0.00 | 0.00 | 84 | 1020.1 |
| 20260507074948 | 76 | 23 | 11.0 | 18.0 | 0.00 | 0.00 | 0.00 | 85 | 1020.1 |
| 20260507074445 | 76 | 76 | 11.0 | 17.0 | 0.00 | 0.00 | 0.00 | 85 | 1020.0 |
| 20260507073943 | 76 | 68 | 10.0 | 17.0 | 0.00 | 0.00 | 0.00 | 85 | 1020.0 |
| 20260507073439 | 76 | 82 | 11.0 | 16.0 | 0.00 | 0.00 | 0.00 | 86 | 1020.1 |
| 20260507072936 | 76 | 123 | 6.0 | 13.0 | 0.00 | 0.00 | 0.00 | 86 | 1020.1 |
| 20260507072434 | 76 | 60 | 10.0 | 11.0 | 0.00 | 0.00 | 0.00 | 85 | 1020.3 |
| 20260507071931 | 76 | 138 | 9.0 | 14.0 | 0.00 | 0.00 | 0.00 | 86 | 1020.2 |
| 20260507071428 | 76 | 103 | 9.0 | 14.0 | 0.00 | 0.00 | 0.00 | 85 | 1020.3 |
| 20260507070924 | 76 | 77 | 13.0 | 18.0 | 0.00 | 0.00 | 0.00 | 85 | 1020.4 |
| 20260507070422 | 76 | 79 | 10.0 | 14.0 | 0.00 | 0.00 | 0.00 | 86 | 1020.5 |
| 20260507065918 | 76 | 84 | 11.0 | 14.0 | 0.00 | 0.00 | 0.00 | 86 | 1020.3 |
| 20260507065415 | 76 | 72 | 7.0 | 14.0 | 0.00 | 0.00 | 0.00 | 86 | 1020.3 |
| 20260507064912 | 76 | 152 | 8.0 | 11.0 | 0.00 | 0.00 | 0.00 | 86 | 1020.4 |
| 20260507064410 | 76 | 85 | 8.0 | 13.0 | 0.00 | 0.00 | 0.00 | 86 | 1020.8 |
| 20260507063908 | 76 | 72 | 9.0 | 11.0 | 0.00 | 0.00 | 0.00 | 85 | 1020.7 |
| 20260507063405 | 77 | 99 | 7.0 | 11.0 | 0.00 | 0.00 | 0.00 | 85 | 1020.8 |
| 20260507062902 | 77 | 131 | 8.0 | 15.0 | 0.00 | 0.00 | 0.00 | 84 | 1020.7 |
| 20260507062359 | 77 | 110 | 10.0 | 11.0 | 0.00 | 0.00 | 0.00 | 84 | 1020.8 |
| 20260507061856 | 77 | 83 | 7.0 | 15.0 | 0.00 | 0.00 | 0.00 | 84 | 1020.9 |
| 20260507061354 | 76 | 91 | 8.0 | 14.0 | 0.00 | 0.00 | 0.00 | 84 | 1020.8 |
| 20260507060853 | 77 | 115 | 5.0 | 9.0 | 0.00 | 0.00 | 0.00 | 84 | 1021.1 |
| 20260507060349 | 77 | 84 | 9.0 | 10.0 | 0.00 | 0.00 | 0.00 | 84 | 1021.0 |
| 20260507055846 | 77 | 108 | 4.0 | 9.0 | 0.00 | 0.00 | 0.00 | 83 | 1021.2 |
| 20260507055340 | 77 | 86 | 11.0 | 14.0 | 0.00 | 0.00 | 0.00 | 83 | 1021.3 |
| 20260507054838 | 77 | 77 | 7.0 | 10.0 | 0.00 | 0.00 | 0.00 | 82 | 1021.1 |
| 20260507054334 | 77 | 73 | 7.0 | 10.0 | 0.00 | 0.00 | 0.00 | 82 | 1021.3 |
| 20260507053831 | 77 | 92 | 8.0 | 14.0 | 0.00 | 0.00 | 0.00 | 83 | 1021.3 |
| 20260507053329 | 77 | 56 | 6.0 | 9.0 | 0.00 | 0.00 | 0.00 | 83 | 1021.3 |
| 20260507052828 | 77 | 77 | 9.0 | 11.0 | 0.00 | 0.00 | 0.00 | 83 | 1021.5 |
| 20260507052324 | 77 | 40 | 8.0 | 10.0 | 0.00 | 0.00 | 0.00 | 83 | 1021.6 |
| 20260507051822 | 77 | 95 | 8.0 | 10.0 | 0.00 | 0.00 | 0.00 | 83 | 1021.7 |
| 20260507051319 | 77 | 78 | 9.0 | 10.0 | 0.00 | 0.00 | 0.00 | 83 | 1021.7 |
| 20260507050816 | 77 | 59 | 7.0 | 13.0 | 0.00 | 0.00 | 0.00 | 83 | 1021.7 |
| 20260507050312 | 77 | 75 | 11.0 | 16.0 | 0.00 | 0.00 | 0.00 | 83 | 1021.6 |
| 20260507045809 | 77 | 64 | 9.0 | 11.0 | 0.00 | 0.00 | 0.00 | 82 | 1021.9 |
| 20260507045306 | 77 | 101 | 9.0 | 11.0 | 0.00 | 0.00 | 0.00 | 82 | 1021.7 |
| 20260507044803 | 77 | 92 | 7.0 | 16.0 | 0.00 | 0.00 | 0.00 | 81 | 1022.0 |
| 20260507044259 | 77 | 65 | 5.0 | 14.0 | 0.00 | 0.00 | 0.00 | 81 | 1022.0 |
| 20260507043755 | 77 | 76 | 11.0 | 14.0 | 0.00 | 0.00 | 0.00 | 81 | 1022.1 |
| 20260507043252 | 77 | 94 | 9.0 | 14.0 | 0.00 | 0.00 | 0.00 | 82 | 1022.2 |
| 20260507042748 | 77 | 61 | 9.0 | 11.0 | 0.00 | 0.00 | 0.00 | 83 | 1022.1 |
| 20260507042243 | 77 | 80 | 7.0 | 14.0 | 0.00 | 0.00 | 0.00 | 83 | 1022.3 |
| 20260507041741 | 77 | 90 | 8.0 | 14.0 | 0.00 | 0.00 | 0.00 | 83 | 1022.2 |
| 20260507041238 | 77 | 128 | 8.0 | 13.0 | 0.00 | 0.00 | 0.00 | 84 | 1022.3 |
| 20260507040735 | 78 | 35 | 8.0 | 14.0 | 0.00 | 0.00 | 0.00 | 83 | 1022.4 |
| 20260507040231 | 77 | 86 | 12.0 | 14.0 | 0.00 | 0.00 | 0.00 | 83 | 1022.5 |
| 20260507035727 | 77 | 24 | 9.0 | 11.0 | 0.00 | 0.00 | 0.00 | 83 | 1022.5 |
| 20260507035222 | 77 | 92 | 7.0 | 14.0 | 0.00 | 0.00 | 0.00 | 84 | 1022.3 |
| 20260507034720 | 77 | 63 | 8.0 | 13.0 | 0.00 | 0.00 | 0.00 | 84 | 1022.7 |
| 20260507034217 | 77 | 64 | 8.0 | 15.0 | 0.00 | 0.00 | 0.00 | 85 | 1022.5 |
| 20260507033715 | 77 | 77 | 7.0 | 13.0 | 0.00 | 0.00 | 0.00 | 85 | 1022.5 |
| 20260507033212 | 77 | 131 | 8.0 | 13.0 | 0.00 | 0.00 | 0.00 | 85 | 1022.4 |
| 20260507032710 | 78 | 51 | 11.0 | 13.0 | 0.00 | 0.00 | 0.00 | 85 | 1022.6 |
| 20260507032205 | 78 | 97 | 9.0 | 11.0 | 0.00 | 0.00 | 0.00 | 85 | 1022.7 |
| 20260507031703 | 78 | 87 | 9.0 | 14.0 | 0.00 | 0.00 | 0.00 | 85 | 1022.6 |
| 20260507031159 | 77 | 51 | 6.0 | 14.0 | 0.00 | 0.00 | 0.00 | 84 | 1022.9 |
| 20260507030656 | 78 | 90 | 7.0 | 11.0 | 0.00 | 0.00 | 0.00 | 84 | 1022.9 |
| 20260507030154 | 78 | 67 | 9.0 | 14.0 | 0.00 | 0.00 | 0.00 | 85 | 1022.8 |
| 20260507025651 | 77 | 119 | 10.0 | 15.0 | 0.00 | 0.00 | 0.00 | 85 | 1022.8 |
| 20260507025147 | 77 | 64 | 9.0 | 13.0 | 0.00 | 0.00 | 0.00 | 85 | 1022.8 |
| 20260507024645 | 78 | 67 | 6.0 | 14.0 | 0.00 | 0.00 | 0.00 | 85 | 1022.6 |
| 20260507024143 | 78 | 25 | 9.0 | 16.0 | 0.00 | 0.00 | 0.00 | 85 | 1022.8 |
| 20260507023638 | 78 | 87 | 5.0 | 13.0 | 0.00 | 0.00 | 0.00 | 85 | 1022.7 |
| 20260507023135 | 78 | 46 | 7.0 | 10.0 | 0.00 | 0.00 | 0.00 | 85 | 1022.8 |
| 20260507022632 | 78 | 51 | 3.0 | 11.0 | 0.00 | 0.00 | 0.00 | 85 | 1022.8 |
| 20260507022128 | 78 | 234 | 4.0 | 9.0 | 0.00 | 0.00 | 0.00 | 85 | 1022.7 |
| 20260507021625 | 78 | 51 | 8.0 | 11.0 | 0.00 | 0.00 | 0.00 | 85 | 1022.6 |
| 20260507021120 | 78 | 48 | 5.0 | 10.0 | 0.00 | 0.00 | 0.00 | 85 | 1022.5 |
| 20260507020619 | 78 | 101 | 8.0 | 10.0 | 0.00 | 0.00 | 0.00 | 85 | 1022.6 |
| 20260507020114 | 78 | 89 | 6.0 | 8.0 | 0.00 | 0.00 | 0.00 | 85 | 1022.6 |
| 20260507015613 | 78 | 71 | 8.0 | 13.0 | 0.00 | 0.00 | 0.00 | 85 | 1022.3 |
| 20260507015110 | 78 | 78 | 8.0 | 11.0 | 0.00 | 0.00 | 0.00 | 85 | 1022.6 |
| 20260507014607 | 77 | 76 | 6.0 | 11.0 | 0.00 | 0.00 | 0.00 | 86 | 1022.3 |
| 20260507014102 | 77 | 78 | 6.0 | 9.0 | 0.00 | 0.00 | 0.00 | 85 | 1022.3 |
| 20260507013559 | 78 | 74 | 6.0 | 10.0 | 0.00 | 0.00 | 0.00 | 85 | 1022.2 |
| 20260507013056 | 78 | 63 | 7.0 | 14.0 | 0.00 | 0.00 | 0.00 | 85 | 1022.3 |
| 20260507012554 | 78 | 31 | 7.0 | 13.0 | 0.00 | 0.00 | 0.00 | 86 | 1022.2 |
| 20260507012049 | 78 | 91 | 9.0 | 9.0 | 0.00 | 0.00 | 0.00 | 86 | 1022.3 |
| 20260507011547 | 78 | 99 | 12.0 | 13.0 | 0.00 | 0.00 | 0.00 | 86 | 1022.2 |
| 20260507011043 | 78 | 93 | 7.0 | 11.0 | 0.00 | 0.00 | 0.00 | 86 | 1022.2 |
| 20260507010538 | 78 | 71 | 7.0 | 11.0 | 0.00 | 0.00 | 0.00 | 86 | 1021.9 |
| 20260507010034 | 78 | 75 | 4.0 | 9.0 | 0.00 | 0.00 | 0.00 | 86 | 1022.1 |
| 20260507005532 | 78 | 78 | 5.0 | 10.0 | 0.00 | 0.00 | 0.00 | 86 | 1021.9 |
| 20260507005028 | 78 | 66 | 5.0 | 7.0 | 0.00 | 0.00 | 0.00 | 86 | 1022.0 |
| 20260507004525 | 78 | 57 | 7.0 | 9.0 | 0.00 | 0.00 | 0.00 | 86 | 1022.0 |
| 20260507004023 | 78 | 92 | 6.0 | 9.0 | 0.00 | 0.00 | 0.00 | 86 | 1022.0 |
| 20260507003518 | 78 | 68 | 9.0 | 10.0 | 0.00 | 0.00 | 0.00 | 86 | 1021.9 |
| 20260507003014 | 78 | 89 | 6.0 | 10.0 | 0.00 | 0.00 | 0.00 | 86 | 1021.7 |
| 20260507002510 | 78 | 85 | 5.0 | 9.0 | 0.00 | 0.00 | 0.00 | 86 | 1021.8 |
| 20260507002006 | 78 | 105 | 7.0 | 10.0 | 0.00 | 0.00 | 0.00 | 86 | 1021.7 |
| 20260507001503 | 78 | 96 | 8.0 | 10.0 | 0.00 | 0.00 | 0.00 | 85 | 1021.8 |
| 20260507001000 | 78 | 32 | 5.0 | 7.0 | 0.00 | 0.00 | 0.00 | 85 | 1021.8 |
| 20260507000456 | 79 | 168 | 6.0 | 10.0 | 0.00 | 0.00 | 0.00 | 85 | 1021.6 |
| 20260506235952 | 79 | 89 | 6.0 | 11.0 | 0.00 | 0.00 | 0.00 | 85 | 1021.5 |
| 20260506235450 | 78 | 108 | 3.0 | 7.0 | 0.00 | 0.00 | 0.00 | 85 | 1021.5 |
| 20260506234945 | 78 | 129 | 6.0 | 9.0 | 0.00 | 0.00 | 0.00 | 85 | 1021.5 |
| 20260506234443 | 78 | 103 | 7.0 | 11.0 | 0.00 | 0.00 | 0.00 | 85 | 1021.6 |
| 20260506233940 | 78 | 132 | 6.0 | 8.0 | 0.00 | 0.00 | 0.00 | 85 | 1021.3 |
| 20260506233436 | 78 | 85 | 4.0 | 10.0 | 0.00 | 0.00 | 0.00 | 85 | 1021.4 |
| 20260506232933 | 78 | 87 | 8.0 | 11.0 | 0.00 | 0.00 | 0.00 | 85 | 1021.4 |
| 20260506232429 | 79 | 200 | 4.0 | 13.0 | 0.00 | 0.00 | 0.00 | 85 | 1021.0 |
| 20260506231925 | 78 | 132 | 9.0 | 13.0 | 0.00 | 0.00 | 0.00 | 84 | 1021.2 |
| 20260506231423 | 78 | 79 | 9.0 | 13.0 | 0.00 | 0.00 | 0.00 | 84 | 1021.1 |
| 20260506230920 | 78 | 123 | 6.0 | 13.0 | 0.00 | 0.00 | 0.00 | 85 | 1021.0 |
| 20260506230416 | 79 | 146 | 9.0 | 13.0 | 0.00 | 0.00 | 0.00 | 85 | 1020.9 |
| 20260506225913 | 79 | 121 | 10.0 | 14.0 | 0.00 | 0.00 | 0.00 | 85 | 1020.8 |
| 20260506225410 | 79 | 93 | 6.0 | 11.0 | 0.00 | 0.00 | 0.00 | 84 | 1021.1 |
| 20260506224907 | 79 | 183 | 9.0 | 14.0 | 0.00 | 0.00 | 0.00 | 84 | 1020.9 |
| 20260506224405 | 79 | 79 | 12.0 | 16.0 | 0.00 | 0.00 | 0.00 | 84 | 1020.8 |
| 20260506223900 | 79 | 111 | 7.0 | 11.0 | 0.00 | 0.00 | 0.00 | 84 | 1020.8 |
| 20260506223356 | 79 | 144 | 6.0 | 11.0 | 0.00 | 0.00 | 0.00 | 84 | 1020.6 |
| 20260506222853 | 79 | 143 | 7.0 | 11.0 | 0.00 | 0.00 | 0.00 | 83 | 1020.7 |
| 20260506222349 | 80 | 216 | 11.0 | 16.0 | 0.00 | 0.00 | 0.00 | 83 | 1020.6 |
| 20260506221847 | 80 | 124 | 7.0 | 14.0 | 0.00 | 0.00 | 0.00 | 83 | 1020.4 |
| 20260506221344 | 80 | 123 | 11.0 | 13.0 | 0.00 | 0.00 | 0.00 | 83 | 1020.5 |
| 20260506220842 | 80 | 100 | 8.0 | 13.0 | 0.00 | 0.00 | 0.00 | 82 | 1020.5 |
| 20260506220337 | 80 | 108 | 11.0 | 14.0 | 0.00 | 0.00 | 0.00 | 82 | 1020.6 |
| 20260506215834 | 80 | 128 | 11.0 | 13.0 | 0.00 | 0.00 | 0.00 | 81 | 1020.5 |
| 20260506215330 | 80 | 123 | 12.0 | 16.0 | 0.00 | 0.00 | 0.00 | 81 | 1020.4 |
| 20260506214826 | 80 | 147 | 11.0 | 16.0 | 0.00 | 0.00 | 0.00 | 81 | 1020.4 |
| 20260506214323 | 80 | 142 | 8.0 | 16.0 | 0.00 | 0.00 | 0.00 | 80 | 1020.3 |
| 20260506213821 | 81 | 121 | 10.0 | 14.0 | 0.00 | 0.00 | 0.00 | 81 | 1020.4 |
| 20260506213318 | 81 | 87 | 12.0 | 18.0 | 0.00 | 0.00 | 0.00 | 80 | 1020.5 |
| 20260506212815 | 81 | 76 | 8.0 | 15.0 | 0.00 | 0.00 | 0.00 | 79 | 1020.6 |
| 20260506212311 | 81 | 100 | 7.0 | 18.0 | 0.00 | 0.00 | 0.00 | 78 | 1020.5 |
| 20260506211806 | 81 | 139 | 10.0 | 14.0 | 0.00 | 0.00 | 0.00 | 79 | 1020.3 |
| 20260506211303 | 81 | 104 | 12.0 | 15.0 | 0.00 | 0.00 | 0.00 | 78 | 1020.1 |
| 20260506210800 | 81 | 106 | 14.0 | 17.0 | 0.00 | 0.00 | 0.00 | 78 | 1020.4 |
| 20260506210257 | 81 | 103 | 10.0 | 17.0 | 0.00 | 0.00 | 0.00 | 78 | 1020.4 |
| 20260506205754 | 82 | 113 | 12.0 | 15.0 | 0.00 | 0.00 | 0.00 | 76 | 1020.3 |
| 20260506205249 | 82 | 75 | 14.0 | 21.0 | 0.00 | 0.00 | 0.00 | 76 | 1020.4 |
| 20260506204746 | 82 | 97 | 12.0 | 18.0 | 0.00 | 0.00 | 0.00 | 75 | 1020.3 |
| 20260506204244 | 83 | 107 | 16.0 | 21.0 | 0.00 | 0.00 | 0.00 | 74 | 1020.4 |
| 20260506203741 | 83 | 133 | 13.0 | 17.0 | 0.00 | 0.00 | 0.00 | 73 | 1020.1 |
| 20260506203239 | 83 | 98 | 14.0 | 19.0 | 0.00 | 0.00 | 0.00 | 73 | 1020.5 |
| 20260506202736 | 83 | 109 | 12.0 | 16.0 | 0.00 | 0.00 | 0.00 | 74 | 1020.4 |
| 20260506202232 | 83 | 236 | 5.0 | 11.0 | 0.00 | 0.00 | 0.00 | 75 | 1020.2 |
| 20260506201729 | 83 | 128 | 11.0 | 15.0 | 0.00 | 0.00 | 0.00 | 73 | 1020.3 |
| 20260506201226 | 84 | 108 | 10.0 | 17.0 | 0.00 | 0.00 | 0.00 | 72 | 1020.3 |
| 20260506200723 | 83 | 69 | 12.0 | 17.0 | 0.00 | 0.00 | 0.00 | 72 | 1020.2 |
| 20260506200220 | 84 | 180 | 12.0 | 17.0 | 0.00 | 0.00 | 0.00 | 72 | 1020.3 |
| 20260506195716 | 84 | 132 | 10.0 | 16.0 | 0.00 | 0.00 | 0.00 | 72 | 1020.5 |
| 20260506195212 | 84 | 77 | 8.0 | 13.0 | 0.00 | 0.00 | 0.00 | 73 | 1020.4 |
| 20260506194704 | 84 | 130 | 9.0 | 15.0 | 0.00 | 0.00 | 0.00 | 70 | 1020.5 |
| 20260506194200 | 84 | 87 | 15.0 | 17.0 | 0.00 | 0.00 | 0.00 | 70 | 1020.6 |
| 20260506193658 | 84 | 156 | 14.0 | 19.0 | 0.00 | 0.00 | 0.00 | 70 | 1020.6 |
| 20260506193155 | 84 | 124 | 12.0 | 18.0 | 0.00 | 0.00 | 0.00 | 70 | 1020.6 |
| 20260506192651 | 85 | 145 | 11.0 | 17.0 | 0.00 | 0.00 | 0.00 | 70 | 1020.7 |
| 20260506192147 | 85 | 153 | 10.0 | 14.0 | 0.00 | 0.00 | 0.00 | 70 | 1020.8 |
| 20260506191645 | 85 | 132 | 11.0 | 18.0 | 0.00 | 0.00 | 0.00 | 71 | 1021.0 |
| 20260506191141 | 85 | 107 | 12.0 | 15.0 | 0.00 | 0.00 | 0.00 | 69 | 1020.7 |
| 20260506190638 | 86 | 90 | 11.0 | 18.0 | 0.00 | 0.00 | 0.00 | 68 | 1020.8 |
| 20260506190135 | 86 | 128 | 11.0 | 14.0 | 0.00 | 0.00 | 0.00 | 65 | 1020.7 |
| 20260506185632 | 86 | 143 | 10.0 | 14.0 | 0.00 | 0.00 | 0.00 | 69 | 1020.6 |
| 20260506185128 | 86 | 147 | 13.0 | 17.0 | 0.00 | 0.00 | 0.00 | 66 | 1020.6 |
| 20260506184626 | 86 | 100 | 14.0 | 17.0 | 0.00 | 0.00 | 0.00 | 69 | 1021.0 |
| 20260506184123 | 86 | 139 | 11.0 | 17.0 | 0.00 | 0.00 | 0.00 | 68 | 1020.8 |
| 20260506183619 | 86 | 177 | 8.0 | 18.0 | 0.00 | 0.00 | 0.00 | 68 | 1020.9 |
| 20260506183115 | 86 | 151 | 11.0 | 22.0 | 0.00 | 0.00 | 0.00 | 66 | 1021.0 |
| 20260506182613 | 87 | 199 | 11.0 | 18.0 | 0.00 | 0.00 | 0.00 | 68 | 1021.0 |
| 20260506182110 | 87 | 98 | 7.0 | 14.0 | 0.00 | 0.00 | 0.00 | 67 | 1021.0 |
| 20260506181608 | 86 | 87 | 13.0 | 16.0 | 0.00 | 0.00 | 0.00 | 67 | 1021.1 |
| 20260506181105 | 86 | 163 | 8.0 | 16.0 | 0.00 | 0.00 | 0.00 | 71 | 1021.2 |
| 20260506180601 | 86 | 172 | 11.0 | 22.0 | 0.00 | 0.00 | 0.00 | 71 | 1021.3 |
| 20260506180058 | 86 | 171 | 8.0 | 15.0 | 0.00 | 0.00 | 0.00 | 67 | 1021.3 |
| 20260506175554 | 86 | 71 | 14.0 | 17.0 | 0.00 | 0.00 | 0.00 | 67 | 1021.5 |
| 20260506175050 | 86 | 117 | 15.0 | 17.0 | 0.00 | 0.00 | 0.00 | 68 | 1021.5 |
| 20260506174549 | 87 | 100 | 15.0 | 19.0 | 0.00 | 0.00 | 0.00 | 66 | 1021.6 |
| 20260506174045 | 87 | 134 | 12.0 | 17.0 | 0.00 | 0.00 | 0.00 | 65 | 1021.9 |
| 20260506173543 | 87 | 93 | 15.0 | 18.0 | 0.00 | 0.00 | 0.00 | 63 | 1021.8 |
| 20260506173039 | 87 | 189 | 11.0 | 16.0 | 0.00 | 0.00 | 0.00 | 65 | 1021.6 |
| 20260506172537 | 87 | 181 | 9.0 | 17.0 | 0.00 | 0.00 | 0.00 | 65 | 1021.8 |
| 20260506172033 | 86 | 97 | 13.0 | 18.0 | 0.00 | 0.00 | 0.00 | 66 | 1022.0 |
| 20260506171531 | 87 | 109 | 17.0 | 22.0 | 0.00 | 0.00 | 0.00 | 66 | 1022.1 |
| 20260506171028 | 88 | 111 | 13.0 | 22.0 | 0.00 | 0.00 | 0.00 | 64 | 1022.2 |
| 20260506170526 | 87 | 70 | 13.0 | 17.0 | 0.00 | 0.00 | 0.00 | 66 | 1022.2 |
| 20260506170023 | 87 | 115 | 15.0 | 18.0 | 0.00 | 0.00 | 0.00 | 66 | 1022.3 |
| 20260506165521 | 87 | 52 | 8.0 | 18.0 | 0.00 | 0.00 | 0.00 | 65 | 1022.4 |
| 20260506165017 | 87 | 113 | 15.0 | 21.0 | 0.00 | 0.00 | 0.00 | 66 | 1022.4 |
| 20260506164514 | 87 | 126 | 13.0 | 18.0 | 0.00 | 0.00 | 0.00 | 68 | 1022.5 |
| 20260506164012 | 86 | 207 | 7.0 | 16.0 | 0.00 | 0.00 | 0.00 | 69 | 1022.6 |
| 20260506163508 | 87 | 129 | 12.0 | 21.0 | 0.00 | 0.00 | 0.00 | 68 | 1022.8 |
| 20260506163003 | 86 | 101 | 13.0 | 21.0 | 0.00 | 0.00 | 0.00 | 68 | 1022.8 |
| 20260506162500 | 87 | 136 | 11.0 | 21.0 | 0.00 | 0.00 | 0.00 | 65 | 1022.9 |
| 20260506161957 | 88 | 124 | 10.0 | 16.0 | 0.00 | 0.00 | 0.00 | 63 | 1022.8 |
| 20260506161455 | 86 | 86 | 9.0 | 16.0 | 0.00 | 0.00 | 0.00 | 68 | 1022.7 |
| 20260506160952 | 86 | 132 | 14.0 | 21.0 | 0.00 | 0.00 | 0.00 | 66 | 1022.7 |
| 20260506160449 | 86 | 148 | 13.0 | 19.0 | 0.00 | 0.00 | 0.00 | 68 | 1022.8 |
| 20260506155946 | 87 | 109 | 14.0 | 23.0 | 0.00 | 0.00 | 0.00 | 66 | 1022.9 |
| 20260506155444 | 87 | 95 | 12.0 | 19.0 | 0.00 | 0.00 | 0.00 | 68 | 1022.9 |
| 20260506153610 | 87 | 87 | 9.0 | 17.0 | 0.00 | 0.00 | 0.00 | 66 | 1023.0 |
| 20260506153108 | 87 | 96 | 15.0 | 21.0 | 0.00 | 0.00 | 0.00 | 65 | 1023.1 |
| 20260506152605 | 87 | 144 | 11.0 | 19.0 | 0.00 | 0.00 | 0.00 | 66 | 1023.2 |
| 20260506152102 | 86 | 134 | 13.0 | 19.0 | 0.00 | 0.00 | 0.00 | 65 | 1023.3 |
| 20260506151600 | 87 | 116 | 11.0 | 19.0 | 0.00 | 0.00 | 0.00 | 68 | 1023.1 |
| 20260506151057 | 86 | 152 | 9.0 | 21.0 | 0.00 | 0.00 | 0.00 | 69 | 1023.4 |
| 20260506150554 | 86 | 145 | 12.0 | 16.0 | 0.00 | 0.00 | 0.00 | 69 | 1023.1 |
| 20260506150051 | 87 | 42 | 11.0 | 16.0 | 0.00 | 0.00 | 0.00 | 67 | 1023.1 |
| 20260506145547 | 87 | 123 | 15.0 | 19.0 | 0.00 | 0.00 | 0.00 | 66 | 1023.0 |
| 20260506145045 | 87 | 111 | 12.0 | 19.0 | 0.00 | 0.00 | 0.00 | 65 | 1023.1 |
| 20260506144542 | 87 | 149 | 13.0 | 17.0 | 0.00 | 0.00 | 0.00 | 66 | 1023.0 |
| 20260506144039 | 87 | 132 | 13.0 | 21.0 | 0.00 | 0.00 | 0.00 | 66 | 1023.0 |
| 20260506143536 | 87 | 114 | 10.0 | 17.0 | 0.00 | 0.00 | 0.00 | 63 | 1022.9 |
| 20260506143035 | 87 | 74 | 7.0 | 23.0 | 0.00 | 0.00 | 0.00 | 67 | 1023.1 |